Year,Month,Day,Hour,Minute,Value (Times are PST for temperature in C)
2017,06,24,00,00,14.70
2017,06,24,00,01,14.70
2017,06,24,00,02,14.70
2017,06,24,00,03,14.70
2017,06,24,00,04,14.70
2017,06,24,00,05,14.70
2017,06,24,00,06,14.70
2017,06,24,00,07,14.60
2017,06,24,00,08,14.60
2017,06,24,00,09,14.60
2017,06,24,00,10,14.60
2017,06,24,00,11,14.60
2017,06,24,00,12,14.60
2017,06,24,00,13,14.50
2017,06,24,00,14,14.50
2017,06,24,00,15,14.50
2017,06,24,00,16,14.50
2017,06,24,00,17,14.40
2017,06,24,00,18,14.40
2017,06,24,00,19,14.40
2017,06,24,00,20,14.40
2017,06,24,00,21,14.40
2017,06,24,00,22,14.30
2017,06,24,00,23,14.30
2017,06,24,00,24,14.30
2017,06,24,00,25,14.30
2017,06,24,00,26,14.30
2017,06,24,00,27,14.30
2017,06,24,00,28,14.30
2017,06,24,00,29,14.20
2017,06,24,00,30,14.20
2017,06,24,00,31,14.20
2017,06,24,00,32,14.20
2017,06,24,00,33,14.20
2017,06,24,00,34,14.20
2017,06,24,00,35,14.20
2017,06,24,00,36,14.20
2017,06,24,00,37,14.20
2017,06,24,00,38,14.10
2017,06,24,00,39,14.10
2017,06,24,00,40,14.10
2017,06,24,00,41,14.10
2017,06,24,00,42,14.10
2017,06,24,00,43,14.10
2017,06,24,00,44,14.10
2017,06,24,00,45,14.10
2017,06,24,00,46,14.00
2017,06,24,00,47,14.00
2017,06,24,00,48,14.00
2017,06,24,00,49,14.00
2017,06,24,00,50,14.00
2017,06,24,00,51,13.90
2017,06,24,00,52,13.90
2017,06,24,00,53,13.90
2017,06,24,00,54,13.90
2017,06,24,00,55,13.90
2017,06,24,00,56,13.90
2017,06,24,00,57,13.90
2017,06,24,00,58,13.80
2017,06,24,00,59,13.80
2017,06,24,01,00,13.80
2017,06,24,01,01,13.80
2017,06,24,01,02,13.80
2017,06,24,01,03,13.80
2017,06,24,01,04,13.80
2017,06,24,01,05,13.80
2017,06,24,01,06,13.80
2017,06,24,01,07,13.80
2017,06,24,01,08,13.80
2017,06,24,01,09,13.80
2017,06,24,01,10,13.80
2017,06,24,01,11,13.70
2017,06,24,01,12,13.70
2017,06,24,01,13,13.70
2017,06,24,01,14,13.70
2017,06,24,01,15,13.70
2017,06,24,01,16,13.70
2017,06,24,01,17,13.70
2017,06,24,01,18,13.60
2017,06,24,01,19,13.60
2017,06,24,01,20,13.60
2017,06,24,01,21,13.60
2017,06,24,01,22,13.60
2017,06,24,01,23,13.60
2017,06,24,01,24,13.60
2017,06,24,01,25,13.60
2017,06,24,01,26,13.50
2017,06,24,01,27,13.50
2017,06,24,01,28,13.50
2017,06,24,01,29,13.50
2017,06,24,01,30,13.50
2017,06,24,01,31,13.50
2017,06,24,01,32,13.50
2017,06,24,01,33,13.50
2017,06,24,01,34,13.50
2017,06,24,01,35,13.40
2017,06,24,01,36,13.40
2017,06,24,01,37,13.40
2017,06,24,01,38,13.40
2017,06,24,01,39,13.40
2017,06,24,01,40,13.40
2017,06,24,01,41,13.40
2017,06,24,01,42,13.40
2017,06,24,01,43,13.30
2017,06,24,01,44,13.30
2017,06,24,01,45,13.30
2017,06,24,01,46,13.30
2017,06,24,01,47,13.30
2017,06,24,01,48,13.30
2017,06,24,01,49,13.30
2017,06,24,01,50,13.30
2017,06,24,01,51,13.30
2017,06,24,01,52,13.30
2017,06,24,01,53,13.30
2017,06,24,01,54,13.30
2017,06,24,01,55,13.20
2017,06,24,01,56,13.20
2017,06,24,01,57,13.20
2017,06,24,01,58,13.20
2017,06,24,01,59,13.20
2017,06,24,02,00,13.20
2017,06,24,02,01,13.20
2017,06,24,02,02,13.20
2017,06,24,02,03,13.20
2017,06,24,02,04,13.20
2017,06,24,02,05,13.20
2017,06,24,02,06,13.10
2017,06,24,02,07,13.10
2017,06,24,02,08,13.10
2017,06,24,02,09,13.10
2017,06,24,02,10,13.00
2017,06,24,02,11,13.00
2017,06,24,02,12,13.00
2017,06,24,02,13,12.90
2017,06,24,02,14,12.90
2017,06,24,02,15,12.90
2017,06,24,02,16,12.90
2017,06,24,02,17,12.90
2017,06,24,02,18,12.90
2017,06,24,02,19,12.90
2017,06,24,02,20,12.90
2017,06,24,02,21,12.90
2017,06,24,02,22,12.90
2017,06,24,02,23,12.90
2017,06,24,02,24,12.90
2017,06,24,02,25,12.90
2017,06,24,02,26,12.90
2017,06,24,02,27,12.80
2017,06,24,02,28,12.80
2017,06,24,02,29,12.80
2017,06,24,02,30,12.80
2017,06,24,02,31,12.80
2017,06,24,02,32,12.80
2017,06,24,02,33,12.80
2017,06,24,02,34,12.80
2017,06,24,02,35,12.80
2017,06,24,02,36,12.80
2017,06,24,02,37,12.80
2017,06,24,02,38,12.80
2017,06,24,02,39,12.80
2017,06,24,02,40,12.70
2017,06,24,02,41,12.70
2017,06,24,02,42,12.70
2017,06,24,02,43,12.70
2017,06,24,02,44,12.70
2017,06,24,02,45,12.70
2017,06,24,02,46,12.70
2017,06,24,02,47,12.70
2017,06,24,02,48,12.70
2017,06,24,02,49,12.60
2017,06,24,02,50,12.60
2017,06,24,02,51,12.60
2017,06,24,02,52,12.70
2017,06,24,02,53,12.60
2017,06,24,02,54,12.60
2017,06,24,02,55,12.60
2017,06,24,02,56,12.60
2017,06,24,02,57,12.60
2017,06,24,02,58,12.60
2017,06,24,02,59,12.60
2017,06,24,03,00,12.60
2017,06,24,03,01,12.60
2017,06,24,03,02,12.50
2017,06,24,03,03,12.50
2017,06,24,03,04,12.50
2017,06,24,03,05,12.50
2017,06,24,03,06,12.40
2017,06,24,03,07,12.40
2017,06,24,03,08,12.40
2017,06,24,03,09,12.40
2017,06,24,03,10,12.40
2017,06,24,03,11,12.40
2017,06,24,03,12,12.40
2017,06,24,03,13,12.40
2017,06,24,03,14,12.40
2017,06,24,03,15,12.30
2017,06,24,03,16,12.30
2017,06,24,03,17,12.30
2017,06,24,03,18,12.30
2017,06,24,03,19,12.30
2017,06,24,03,20,12.30
2017,06,24,03,21,12.30
2017,06,24,03,22,12.30
2017,06,24,03,23,12.30
2017,06,24,03,24,12.20
2017,06,24,03,25,12.20
2017,06,24,03,26,12.20
2017,06,24,03,27,12.20
2017,06,24,03,28,12.20
2017,06,24,03,29,12.20
2017,06,24,03,30,12.20
2017,06,24,03,31,12.20
2017,06,24,03,32,12.30
2017,06,24,03,33,12.20
2017,06,24,03,34,12.20
2017,06,24,03,35,12.20
2017,06,24,03,36,12.20
2017,06,24,03,37,12.20
2017,06,24,03,38,12.20
2017,06,24,03,39,12.20
2017,06,24,03,40,12.20
2017,06,24,03,41,12.20
2017,06,24,03,42,12.20
2017,06,24,03,43,12.10
2017,06,24,03,44,12.10
2017,06,24,03,45,12.10
2017,06,24,03,46,12.10
2017,06,24,03,47,12.10
2017,06,24,03,48,12.10
2017,06,24,03,49,12.10
2017,06,24,03,50,12.10
2017,06,24,03,51,12.10
2017,06,24,03,52,12.10
2017,06,24,03,53,12.10
2017,06,24,03,54,12.10
2017,06,24,03,55,12.10
2017,06,24,03,56,12.10
2017,06,24,03,57,12.10
2017,06,24,03,58,12.10
2017,06,24,03,59,12.00
2017,06,24,04,00,12.00
2017,06,24,04,01,12.00
2017,06,24,04,02,12.00
2017,06,24,04,03,12.00
2017,06,24,04,04,11.90
2017,06,24,04,05,11.90
2017,06,24,04,06,11.90
2017,06,24,04,07,11.90
2017,06,24,04,08,11.90
2017,06,24,04,09,11.90
2017,06,24,04,10,11.90
2017,06,24,04,11,11.90
2017,06,24,04,12,11.80
2017,06,24,04,13,11.80
2017,06,24,04,14,11.80
2017,06,24,04,15,11.80
2017,06,24,04,16,11.80
2017,06,24,04,17,11.80
2017,06,24,04,18,11.80
2017,06,24,04,19,11.80
2017,06,24,04,20,11.80
2017,06,24,04,21,11.80
2017,06,24,04,22,11.70
2017,06,24,04,23,11.70
2017,06,24,04,24,11.70
2017,06,24,04,25,11.70
2017,06,24,04,26,11.70
2017,06,24,04,27,11.70
2017,06,24,04,28,11.70
2017,06,24,04,29,11.60
2017,06,24,04,30,11.60
2017,06,24,04,31,11.60
2017,06,24,04,32,11.60
2017,06,24,04,33,11.60
2017,06,24,04,34,11.60
2017,06,24,04,35,11.50
2017,06,24,04,36,11.60
2017,06,24,04,37,11.60
2017,06,24,04,38,11.60
2017,06,24,04,39,11.60
2017,06,24,04,40,11.50
2017,06,24,04,41,11.50
2017,06,24,04,42,11.50
2017,06,24,04,43,11.60
2017,06,24,04,44,11.60
2017,06,24,04,45,11.60
2017,06,24,04,46,11.60
2017,06,24,04,47,11.60
2017,06,24,04,48,11.60
2017,06,24,04,49,11.60
2017,06,24,04,50,11.50
2017,06,24,04,51,11.50
2017,06,24,04,52,11.40
2017,06,24,04,53,11.40
2017,06,24,04,54,11.40
2017,06,24,04,55,11.40
2017,06,24,04,56,11.30
2017,06,24,04,57,11.30
2017,06,24,04,58,11.30
2017,06,24,04,59,11.30
2017,06,24,05,00,11.30
2017,06,24,05,01,11.30
2017,06,24,05,02,11.30
2017,06,24,05,03,11.30
2017,06,24,05,04,11.30
2017,06,24,05,05,11.30
2017,06,24,05,06,11.30
2017,06,24,05,07,11.30
2017,06,24,05,08,11.30
2017,06,24,05,09,11.30
2017,06,24,05,10,11.30
2017,06,24,05,11,11.30
2017,06,24,05,12,11.30
2017,06,24,05,13,11.30
2017,06,24,05,14,11.30
2017,06,24,05,15,11.30
2017,06,24,05,16,11.20
2017,06,24,05,17,11.20
2017,06,24,05,18,11.20
2017,06,24,05,19,11.20
2017,06,24,05,20,11.20
2017,06,24,05,21,11.10
2017,06,24,05,22,11.10
2017,06,24,05,23,11.10
2017,06,24,05,24,11.00
2017,06,24,05,25,11.00
2017,06,24,05,26,11.00
2017,06,24,05,27,10.90
2017,06,24,05,28,10.90
2017,06,24,05,29,10.90
2017,06,24,05,30,10.90
2017,06,24,05,31,10.90
2017,06,24,05,32,10.90
2017,06,24,05,33,10.90
2017,06,24,05,34,10.90
2017,06,24,05,35,10.90
2017,06,24,05,36,10.90
2017,06,24,05,37,10.90
2017,06,24,05,38,10.90
2017,06,24,05,39,10.90
2017,06,24,05,40,10.90
2017,06,24,05,41,10.90
2017,06,24,05,42,10.90
2017,06,24,05,43,10.90
2017,06,24,05,44,10.90
2017,06,24,05,45,10.90
2017,06,24,05,46,10.90
2017,06,24,05,47,10.90
2017,06,24,05,48,10.90
2017,06,24,05,49,10.90
2017,06,24,05,50,10.90
2017,06,24,05,51,10.90
2017,06,24,05,52,10.90
2017,06,24,05,53,10.90
2017,06,24,05,54,10.90
2017,06,24,05,55,10.90
2017,06,24,05,56,10.90
2017,06,24,05,57,10.90
2017,06,24,05,58,10.90
2017,06,24,05,59,11.00
2017,06,24,06,00,11.00
2017,06,24,06,01,11.00
2017,06,24,06,02,11.00
2017,06,24,06,03,11.00
2017,06,24,06,04,11.00
2017,06,24,06,05,11.00
2017,06,24,06,06,11.00
2017,06,24,06,07,11.00
2017,06,24,06,08,11.10
2017,06,24,06,09,11.10
2017,06,24,06,10,11.10
2017,06,24,06,11,11.10
2017,06,24,06,12,11.10
2017,06,24,06,13,11.10
2017,06,24,06,14,11.20
2017,06,24,06,15,11.20
2017,06,24,06,16,11.20
2017,06,24,06,17,11.20
2017,06,24,06,18,11.20
2017,06,24,06,19,11.20
2017,06,24,06,20,11.30
2017,06,24,06,21,11.30
2017,06,24,06,22,11.30
2017,06,24,06,23,11.30
2017,06,24,06,24,11.40
2017,06,24,06,25,11.40
2017,06,24,06,26,11.40
2017,06,24,06,27,11.50
2017,06,24,06,28,11.50
2017,06,24,06,29,11.60
2017,06,24,06,30,11.60
2017,06,24,06,31,11.70
2017,06,24,06,32,11.70
2017,06,24,06,33,11.70
2017,06,24,06,34,11.80
2017,06,24,06,35,11.80
2017,06,24,06,36,11.80
2017,06,24,06,37,11.90
2017,06,24,06,38,11.90
2017,06,24,06,39,11.90
2017,06,24,06,40,12.00
2017,06,24,06,41,12.10
2017,06,24,06,42,12.10
2017,06,24,06,43,12.20
2017,06,24,06,44,12.30
2017,06,24,06,45,12.40
2017,06,24,06,46,12.50
2017,06,24,06,47,12.60
2017,06,24,06,48,12.70
2017,06,24,06,49,12.80
2017,06,24,06,50,12.90
2017,06,24,06,51,13.00
2017,06,24,06,52,13.10
2017,06,24,06,53,13.30
2017,06,24,06,54,13.30
2017,06,24,06,55,13.50
2017,06,24,06,56,13.60
2017,06,24,06,57,13.70
2017,06,24,06,58,13.80
2017,06,24,06,59,13.90
2017,06,24,07,00,13.90
2017,06,24,07,01,14.00
2017,06,24,07,02,14.10
2017,06,24,07,03,14.20
2017,06,24,07,04,14.30
2017,06,24,07,05,14.40
2017,06,24,07,06,14.50
2017,06,24,07,07,14.60
2017,06,24,07,08,14.70
2017,06,24,07,09,14.80
2017,06,24,07,10,15.00
2017,06,24,07,11,15.10
2017,06,24,07,12,15.30
2017,06,24,07,13,15.40
2017,06,24,07,14,15.40
2017,06,24,07,15,15.50
2017,06,24,07,16,15.50
2017,06,24,07,17,15.50
2017,06,24,07,18,15.60
2017,06,24,07,19,15.50
2017,06,24,07,20,15.50
2017,06,24,07,21,15.60
2017,06,24,07,22,15.60
2017,06,24,07,23,15.70
2017,06,24,07,24,15.80
2017,06,24,07,25,15.90
2017,06,24,07,26,16.00
2017,06,24,07,27,16.10
2017,06,24,07,28,16.10
2017,06,24,07,29,16.20
2017,06,24,07,30,16.30
2017,06,24,07,31,16.40
2017,06,24,07,32,16.50
2017,06,24,07,33,16.60
2017,06,24,07,34,16.70
2017,06,24,07,35,16.80
2017,06,24,07,36,16.90
2017,06,24,07,37,17.00
2017,06,24,07,38,17.10
2017,06,24,07,39,17.20
2017,06,24,07,40,17.30
2017,06,24,07,41,17.40
2017,06,24,07,42,17.50
2017,06,24,07,43,17.70
2017,06,24,07,44,17.80
2017,06,24,07,45,18.00
2017,06,24,07,46,18.20
2017,06,24,07,47,18.30
2017,06,24,07,48,18.40
2017,06,24,07,49,18.50
2017,06,24,07,50,18.60
2017,06,24,07,51,18.70
2017,06,24,07,52,18.80
2017,06,24,07,53,18.90
2017,06,24,07,54,19.10
2017,06,24,07,55,19.30
2017,06,24,07,56,19.40
2017,06,24,07,57,19.60
2017,06,24,07,58,19.70
2017,06,24,07,59,19.80
2017,06,24,08,00,19.90
2017,06,24,08,01,20.10
2017,06,24,08,02,20.20
2017,06,24,08,03,20.30
2017,06,24,08,04,20.40
2017,06,24,08,05,20.50
2017,06,24,08,06,20.50
2017,06,24,08,07,20.60
2017,06,24,08,08,20.70
2017,06,24,08,09,20.80
2017,06,24,08,10,20.80
2017,06,24,08,11,20.80
2017,06,24,08,12,20.90
2017,06,24,08,13,21.00
2017,06,24,08,14,21.00
2017,06,24,08,15,21.10
2017,06,24,08,16,21.20
2017,06,24,08,17,21.20
2017,06,24,08,18,21.30
2017,06,24,08,19,21.40
2017,06,24,08,20,21.50
2017,06,24,08,21,21.60
2017,06,24,08,22,21.70
2017,06,24,08,23,21.80
2017,06,24,08,24,21.90
2017,06,24,08,25,22.00
2017,06,24,08,26,22.10
2017,06,24,08,27,22.20
2017,06,24,08,28,22.30
2017,06,24,08,29,22.50
2017,06,24,08,30,22.50
2017,06,24,08,31,22.60
2017,06,24,08,32,22.60
2017,06,24,08,33,22.70
2017,06,24,08,34,22.70
2017,06,24,08,35,22.80
2017,06,24,08,36,22.90
2017,06,24,08,37,22.90
2017,06,24,08,38,22.90
2017,06,24,08,39,22.90
2017,06,24,08,40,23.00
2017,06,24,08,41,23.00
2017,06,24,08,42,23.10
2017,06,24,08,43,23.10
2017,06,24,08,44,23.20
2017,06,24,08,45,23.20
2017,06,24,08,46,23.30
2017,06,24,08,47,23.30
2017,06,24,08,48,23.20
2017,06,24,08,49,23.20
2017,06,24,08,50,23.20
2017,06,24,08,51,23.20
2017,06,24,08,52,23.10
2017,06,24,08,53,23.10
2017,06,24,08,54,23.00
2017,06,24,08,55,22.90
2017,06,24,08,56,22.90
2017,06,24,08,57,22.80
2017,06,24,08,58,22.80
2017,06,24,08,59,22.80
2017,06,24,09,00,22.80
2017,06,24,09,01,22.80
2017,06,24,09,02,22.80
2017,06,24,09,03,22.80
2017,06,24,09,04,22.70
2017,06,24,09,05,22.70
2017,06,24,09,06,22.70
2017,06,24,09,07,22.70
2017,06,24,09,08,22.70
2017,06,24,09,09,22.70
2017,06,24,09,10,22.80
2017,06,24,09,11,22.90
2017,06,24,09,12,23.00
2017,06,24,09,13,23.00
2017,06,24,09,14,23.10
2017,06,24,09,15,23.10
2017,06,24,09,16,23.20
2017,06,24,09,17,23.20
2017,06,24,09,18,23.20
2017,06,24,09,19,23.20
2017,06,24,09,20,23.20
2017,06,24,09,21,23.10
2017,06,24,09,22,23.10
2017,06,24,09,23,23.10
2017,06,24,09,24,23.20
2017,06,24,09,25,23.20
2017,06,24,09,26,23.30
2017,06,24,09,27,23.30
2017,06,24,09,28,23.30
2017,06,24,09,29,23.40
2017,06,24,09,30,23.50
2017,06,24,09,31,23.60
2017,06,24,09,32,23.70
2017,06,24,09,33,23.80
2017,06,24,09,34,23.90
2017,06,24,09,35,24.10
2017,06,24,09,36,24.20
2017,06,24,09,37,24.30
2017,06,24,09,38,24.40
2017,06,24,09,39,24.60
2017,06,24,09,40,24.70
2017,06,24,09,41,24.80
2017,06,24,09,42,24.90
2017,06,24,09,43,25.00
2017,06,24,09,44,25.10
2017,06,24,09,45,25.20
2017,06,24,09,46,25.30
2017,06,24,09,47,25.40
2017,06,24,09,48,25.50
2017,06,24,09,49,25.60
2017,06,24,09,50,25.60
2017,06,24,09,51,25.70
2017,06,24,09,52,25.70
2017,06,24,09,53,25.70
2017,06,24,09,54,25.80
2017,06,24,09,55,25.80
2017,06,24,09,56,25.80
2017,06,24,09,57,25.90
2017,06,24,09,58,25.80
2017,06,24,09,59,25.80
2017,06,24,10,00,25.80
2017,06,24,10,01,25.80
2017,06,24,10,02,25.70
2017,06,24,10,03,25.80
2017,06,24,10,04,25.80
2017,06,24,10,05,25.80
2017,06,24,10,06,25.90
2017,06,24,10,07,26.00
2017,06,24,10,08,26.00
2017,06,24,10,09,26.00
2017,06,24,10,10,26.00
2017,06,24,10,11,26.00
2017,06,24,10,12,26.00
2017,06,24,10,13,26.00
2017,06,24,10,14,26.10
2017,06,24,10,15,26.20
2017,06,24,10,16,26.20
2017,06,24,10,17,26.20
2017,06,24,10,18,26.20
2017,06,24,10,19,26.20
2017,06,24,10,20,26.20
2017,06,24,10,21,26.20
2017,06,24,10,22,26.30
2017,06,24,10,23,26.30
2017,06,24,10,24,26.40
2017,06,24,10,25,26.50
2017,06,24,10,26,26.50
2017,06,24,10,27,26.50
2017,06,24,10,28,26.60
2017,06,24,10,29,26.60
2017,06,24,10,30,26.70
2017,06,24,10,31,26.80
2017,06,24,10,32,26.80
2017,06,24,10,33,26.80
2017,06,24,10,34,26.90
2017,06,24,10,35,27.00
2017,06,24,10,36,27.10
2017,06,24,10,37,27.20
2017,06,24,10,38,27.20
2017,06,24,10,39,27.10
2017,06,24,10,40,27.00
2017,06,24,10,41,27.00
2017,06,24,10,42,26.90
2017,06,24,10,43,26.90
2017,06,24,10,44,26.80
2017,06,24,10,45,26.80
2017,06,24,10,46,26.80
2017,06,24,10,47,26.80
2017,06,24,10,48,26.90
2017,06,24,10,49,26.90
2017,06,24,10,50,27.00
2017,06,24,10,51,27.10
2017,06,24,10,52,27.10
2017,06,24,10,53,27.10
2017,06,24,10,54,27.20
2017,06,24,10,55,27.20
2017,06,24,10,56,27.20
2017,06,24,10,57,27.20
2017,06,24,10,58,27.10
2017,06,24,10,59,27.00
2017,06,24,11,00,27.00
2017,06,24,11,01,27.10
2017,06,24,11,02,27.10
2017,06,24,11,03,27.10
2017,06,24,11,04,27.20
2017,06,24,11,05,27.10
2017,06,24,11,06,27.10
2017,06,24,11,07,27.10
2017,06,24,11,08,27.00
2017,06,24,11,09,26.90
2017,06,24,11,10,26.90
2017,06,24,11,11,26.80
2017,06,24,11,12,26.80
2017,06,24,11,13,26.90
2017,06,24,11,14,27.00
2017,06,24,11,15,27.10
2017,06,24,11,16,27.10
2017,06,24,11,17,27.10
2017,06,24,11,18,27.10
2017,06,24,11,19,27.10
2017,06,24,11,20,27.10
2017,06,24,11,21,27.20
2017,06,24,11,22,27.30
2017,06,24,11,23,27.30
2017,06,24,11,24,27.40
2017,06,24,11,25,27.50
2017,06,24,11,26,27.50
2017,06,24,11,27,27.60
2017,06,24,11,28,27.60
2017,06,24,11,29,27.70
2017,06,24,11,30,27.70
2017,06,24,11,31,27.70
2017,06,24,11,32,27.70
2017,06,24,11,33,27.70
2017,06,24,11,34,27.60
2017,06,24,11,35,27.60
2017,06,24,11,36,27.50
2017,06,24,11,37,27.50
2017,06,24,11,38,27.50
2017,06,24,11,39,27.40
2017,06,24,11,40,27.40
2017,06,24,11,41,27.40
2017,06,24,11,42,27.40
2017,06,24,11,43,27.50
2017,06,24,11,44,27.50
2017,06,24,11,45,27.60
2017,06,24,11,46,27.60
2017,06,24,11,47,27.70
2017,06,24,11,48,27.90
2017,06,24,11,49,28.00
2017,06,24,11,50,28.10
2017,06,24,11,51,28.10
2017,06,24,11,52,28.00
2017,06,24,11,53,28.00
2017,06,24,11,54,28.00
2017,06,24,11,55,28.00
2017,06,24,11,56,28.00
2017,06,24,11,57,28.10
2017,06,24,11,58,28.10
2017,06,24,11,59,28.10
2017,06,24,12,00,28.10
2017,06,24,12,01,28.10
2017,06,24,12,02,28.10
2017,06,24,12,03,28.10
2017,06,24,12,04,28.10
2017,06,24,12,05,28.10
2017,06,24,12,06,28.10
2017,06,24,12,07,28.10
2017,06,24,12,08,28.20
2017,06,24,12,09,28.20
2017,06,24,12,10,28.30
2017,06,24,12,11,28.40
2017,06,24,12,12,28.40
2017,06,24,12,13,28.40
2017,06,24,12,14,28.30
2017,06,24,12,15,28.30
2017,06,24,12,16,28.30
2017,06,24,12,17,28.30
2017,06,24,12,18,28.20
2017,06,24,12,19,28.20
2017,06,24,12,20,28.20
2017,06,24,12,21,28.10
2017,06,24,12,22,27.90
2017,06,24,12,23,27.80
2017,06,24,12,24,27.80
2017,06,24,12,25,27.80
2017,06,24,12,26,27.80
2017,06,24,12,27,27.70
2017,06,24,12,28,27.70
2017,06,24,12,29,27.70
2017,06,24,12,30,27.80
2017,06,24,12,31,28.00
2017,06,24,12,32,28.10
2017,06,24,12,33,28.10
2017,06,24,12,34,28.10
2017,06,24,12,35,28.20
2017,06,24,12,36,28.20
2017,06,24,12,37,28.20
2017,06,24,12,38,28.20
2017,06,24,12,39,28.20
2017,06,24,12,40,28.30
2017,06,24,12,41,28.30
2017,06,24,12,42,28.30
2017,06,24,12,43,28.30
2017,06,24,12,44,28.40
2017,06,24,12,45,28.50
2017,06,24,12,46,28.50
2017,06,24,12,47,28.60
2017,06,24,12,48,28.70
2017,06,24,12,49,28.80
2017,06,24,12,50,28.80
2017,06,24,12,51,28.90
2017,06,24,12,52,28.80
2017,06,24,12,53,28.80
2017,06,24,12,54,28.80
2017,06,24,12,55,28.80
2017,06,24,12,56,28.90
2017,06,24,12,57,28.90
2017,06,24,12,58,28.90
2017,06,24,12,59,28.90
2017,06,24,13,00,28.90
2017,06,24,13,01,29.00
2017,06,24,13,02,29.10
2017,06,24,13,03,29.10
2017,06,24,13,04,29.00
2017,06,24,13,05,28.90
2017,06,24,13,06,28.80
2017,06,24,13,07,28.80
2017,06,24,13,08,28.70
2017,06,24,13,09,28.70
2017,06,24,13,10,28.70
2017,06,24,13,11,28.70
2017,06,24,13,12,28.70
2017,06,24,13,13,28.70
2017,06,24,13,14,28.70
2017,06,24,13,15,28.80
2017,06,24,13,16,28.90
2017,06,24,13,17,29.00
2017,06,24,13,18,29.10
2017,06,24,13,19,29.20
2017,06,24,13,20,29.30
2017,06,24,13,21,29.30
2017,06,24,13,22,29.40
2017,06,24,13,23,29.50
2017,06,24,13,24,29.60
2017,06,24,13,25,29.70
2017,06,24,13,26,29.70
2017,06,24,13,27,29.80
2017,06,24,13,28,29.80
2017,06,24,13,29,29.90
2017,06,24,13,30,29.90
2017,06,24,13,31,29.80
2017,06,24,13,32,29.70
2017,06,24,13,33,29.60
2017,06,24,13,34,29.40
2017,06,24,13,35,29.30
2017,06,24,13,36,29.20
2017,06,24,13,37,29.20
2017,06,24,13,38,29.20
2017,06,24,13,39,29.30
2017,06,24,13,40,29.30
2017,06,24,13,41,29.30
2017,06,24,13,42,29.30
2017,06,24,13,43,29.40
2017,06,24,13,44,29.40
2017,06,24,13,45,29.30
2017,06,24,13,46,29.20
2017,06,24,13,47,29.20
2017,06,24,13,48,29.10
2017,06,24,13,49,29.10
2017,06,24,13,50,29.10
2017,06,24,13,51,29.00
2017,06,24,13,52,29.00
2017,06,24,13,53,28.80
2017,06,24,13,54,28.80
2017,06,24,13,55,28.80
2017,06,24,13,56,28.80
2017,06,24,13,57,28.80
2017,06,24,13,58,28.90
2017,06,24,13,59,29.00
2017,06,24,14,00,29.20
2017,06,24,14,01,29.10
2017,06,24,14,02,29.00
2017,06,24,14,03,28.90
2017,06,24,14,04,28.90
2017,06,24,14,05,29.00
2017,06,24,14,06,29.10
2017,06,24,14,07,29.20
2017,06,24,14,08,29.30
2017,06,24,14,09,29.30
2017,06,24,14,10,29.30
2017,06,24,14,11,29.30
2017,06,24,14,12,29.30
2017,06,24,14,13,29.30
2017,06,24,14,14,29.30
2017,06,24,14,15,29.30
2017,06,24,14,16,29.30
2017,06,24,14,17,29.30
2017,06,24,14,18,29.20
2017,06,24,14,19,29.10
2017,06,24,14,20,29.10
2017,06,24,14,21,29.00
2017,06,24,14,22,29.10
2017,06,24,14,23,29.00
2017,06,24,14,24,28.90
2017,06,24,14,25,28.90
2017,06,24,14,26,28.90
2017,06,24,14,27,28.90
2017,06,24,14,28,29.00
2017,06,24,14,29,29.00
2017,06,24,14,30,29.00
2017,06,24,14,31,29.10
2017,06,24,14,32,29.00
2017,06,24,14,33,29.10
2017,06,24,14,34,29.20
2017,06,24,14,35,29.20
2017,06,24,14,36,29.30
2017,06,24,14,37,29.40
2017,06,24,14,38,29.50
2017,06,24,14,39,29.50
2017,06,24,14,40,29.60
2017,06,24,14,41,29.50
2017,06,24,14,42,29.50
2017,06,24,14,43,29.40
2017,06,24,14,44,29.20
2017,06,24,14,45,29.20
2017,06,24,14,46,29.20
2017,06,24,14,47,29.20
2017,06,24,14,48,29.30
2017,06,24,14,49,29.40
2017,06,24,14,50,29.40
2017,06,24,14,51,29.50
2017,06,24,14,52,29.50
2017,06,24,14,53,29.40
2017,06,24,14,54,29.30
2017,06,24,14,55,29.20
2017,06,24,14,56,29.20
2017,06,24,14,57,29.20
2017,06,24,14,58,29.20
2017,06,24,14,59,29.30
2017,06,24,15,00,29.30
2017,06,24,15,01,29.30
2017,06,24,15,02,29.30
2017,06,24,15,03,29.40
2017,06,24,15,04,29.40
2017,06,24,15,05,29.50
2017,06,24,15,06,29.50
2017,06,24,15,07,29.60
2017,06,24,15,08,29.70
2017,06,24,15,09,29.80
2017,06,24,15,10,29.80
2017,06,24,15,11,29.90
2017,06,24,15,12,30.00
2017,06,24,15,13,30.00
2017,06,24,15,14,29.90
2017,06,24,15,15,29.80
2017,06,24,15,16,29.70
2017,06,24,15,17,29.70
2017,06,24,15,18,29.80
2017,06,24,15,19,29.80
2017,06,24,15,20,29.70
2017,06,24,15,21,29.70
2017,06,24,15,22,29.60
2017,06,24,15,23,29.60
2017,06,24,15,24,29.60
2017,06,24,15,25,29.60
2017,06,24,15,26,29.50
2017,06,24,15,27,29.50
2017,06,24,15,28,29.50
2017,06,24,15,29,29.50
2017,06,24,15,30,29.50
2017,06,24,15,31,29.50
2017,06,24,15,32,29.60
2017,06,24,15,33,29.60
2017,06,24,15,34,29.60
2017,06,24,15,35,29.60
2017,06,24,15,36,29.80
2017,06,24,15,37,29.90
2017,06,24,15,38,30.00
2017,06,24,15,39,30.10
2017,06,24,15,40,30.20
2017,06,24,15,41,30.30
2017,06,24,15,42,30.30
2017,06,24,15,43,30.30
2017,06,24,15,44,30.30
2017,06,24,15,45,30.30
2017,06,24,15,46,30.30
2017,06,24,15,47,30.30
2017,06,24,15,48,30.30
2017,06,24,15,49,30.30
2017,06,24,15,50,30.30
2017,06,24,15,51,30.30
2017,06,24,15,52,30.30
2017,06,24,15,53,30.30
2017,06,24,15,54,30.40
2017,06,24,15,55,30.40
2017,06,24,15,56,30.50
2017,06,24,15,57,30.50
2017,06,24,15,58,30.60
2017,06,24,15,59,30.60
2017,06,24,16,00,30.60
2017,06,24,16,01,30.60
2017,06,24,16,02,30.60
2017,06,24,16,03,30.70
2017,06,24,16,04,30.80
2017,06,24,16,05,30.90
2017,06,24,16,06,31.00
2017,06,24,16,07,31.00
2017,06,24,16,08,30.90
2017,06,24,16,09,30.80
2017,06,24,16,10,30.70
2017,06,24,16,11,30.50
2017,06,24,16,12,30.40
2017,06,24,16,13,30.40
2017,06,24,16,14,30.30
2017,06,24,16,15,30.30
2017,06,24,16,16,30.40
2017,06,24,16,17,30.40
2017,06,24,16,18,30.50
2017,06,24,16,19,30.50
2017,06,24,16,20,30.50
2017,06,24,16,21,30.60
2017,06,24,16,22,30.60
2017,06,24,16,23,30.70
2017,06,24,16,24,30.70
2017,06,24,16,25,30.60
2017,06,24,16,26,30.60
2017,06,24,16,27,30.60
2017,06,24,16,28,30.70
2017,06,24,16,29,30.70
2017,06,24,16,30,30.70
2017,06,24,16,31,30.80
2017,06,24,16,32,30.80
2017,06,24,16,33,30.90
2017,06,24,16,34,30.90
2017,06,24,16,35,30.90
2017,06,24,16,36,30.90
2017,06,24,16,37,30.90
2017,06,24,16,38,30.90
2017,06,24,16,39,30.90
2017,06,24,16,40,30.90
2017,06,24,16,41,30.90
2017,06,24,16,42,31.00
2017,06,24,16,43,31.00
2017,06,24,16,44,31.00
2017,06,24,16,45,31.00
2017,06,24,16,46,31.10
2017,06,24,16,47,31.10
2017,06,24,16,48,31.10
2017,06,24,16,49,31.10
2017,06,24,16,50,31.10
2017,06,24,16,51,31.10
2017,06,24,16,52,31.20
2017,06,24,16,53,31.20
2017,06,24,16,54,31.20
2017,06,24,16,55,31.30
2017,06,24,16,56,31.30
2017,06,24,16,57,31.30
2017,06,24,16,58,31.30
2017,06,24,16,59,31.30
2017,06,24,17,00,31.30
2017,06,24,17,01,31.40
2017,06,24,17,02,31.40
2017,06,24,17,03,31.40
2017,06,24,17,04,31.40
2017,06,24,17,05,31.40
2017,06,24,17,06,31.40
2017,06,24,17,07,31.30
2017,06,24,17,08,31.30
2017,06,24,17,09,31.20
2017,06,24,17,10,31.20
2017,06,24,17,11,31.20
2017,06,24,17,12,31.20
2017,06,24,17,13,31.10
2017,06,24,17,14,31.10
2017,06,24,17,15,31.10
2017,06,24,17,16,31.10
2017,06,24,17,17,31.00
2017,06,24,17,18,31.00
2017,06,24,17,19,31.00